Location: Buckenweiler
(49.0667°N, 10.2500°E)
Time: 01:59:16
(UTC+00:00)

Helios 1A Rocket - Pass Details

Date: 18 January 2026
Orbit: 427 x 437 km, 98.3° (Epoch: 6 February)

Event Time Altitude Azimuth Distance (km) Brightness Sun altitude
Rises 05:25:25 0° 176° (S) 2,436 6.4 -16.0°
Reaches altitude 10° 05:27:28 10° 182° (S) 1,570 5.3 -15.7°
Maximum altitude 05:30:45 50° 259° (WSW) 579 2.5 -15.1°
Enters shadow 05:32:39 22° 326° (NW) 1,027 3.8 -14.8°
